Greybull, WY

10:25 PM MDT on June 25, 2017 (GMT -0600)
South Big Horn County

Weather History for KGEY - March, 2013

Change the Weather History Date:

Friday, March 8, 2013

  Actual Average Record
Temperature  
Mean Temperature 41 °F 34 °F  
Max Temperature 51 °F 47 °F 64 °F (2004)
Min Temperature 31 °F 20 °F -7 °F (2002)
Degree Days  
Heating Degree Days 24 31  
Month to date heating degree days 245 262  
Since 1 July heating degree days 6119 6233  
Cooling Degree Days 0 0  
Month to date cooling degree days 0 0  
Year to date cooling degree days 0 0  
Moisture  
Dew Point 26 °F    
Average Humidity 54    
Maximum Humidity 78    
Minimum Humidity 30    
Precipitation  
Precipitation 0.00 in 0.00 in 0.08 in (2005)
Month to date precipitation T 0.06  
Year to date precipitation 0.42 0.47  
Sea Level Pressure  
Sea Level Pressure 29.88 in    
Wind  
Wind Speed 6 mph (NW)    
Max Wind Speed 20 mph    
Max Gust Speed 24 mph    
Visibility 10 miles    
Events      
T = Trace of Precipitation, MM = Missing Value Source: NWS Daily Summary

Daily Weather History Graph

Daily Weather History Graph

Search for Another Location

Airport or City:

Trip Planner

Search our weather history database for the weather conditions in past years. The results will help you decide how hot, cold, wet, or windy it might be!

Date:

Astronomy

Mar. 08, 2013 Rise Set
Actual Time 6:36 AM MST 6:09 PM MST
Civil Twilight 6:07 AM MST 6:38 PM MST
Nautical Twilight 5:34 AM MST 7:12 PM MST
Astronomical Twilight 5:00 AM MST 7:46 PM MST
Moon 4:29 AM MST (3/8) 3:02 PM MST (3/8)
Length of Visible Light 12h 31m
Length of Day
11h 33m
Waning Crescent, 11% of the Moon is Illuminated
Mar 8
Waning Crescent
Mar 11
New
Mar 19
First Quarter
Mar 27
Full
Apr 2
Last Quarter

Hourly Weather History & Observations

Time (MST) Temp. Windchill Dew Point Humidity Pressure Visibility Wind Dir Wind Speed Gust Speed Precip Events Conditions
12:53 AM 32.0 °F - 25.0 °F 75% 29.97 in 10.0 mi Calm Calm - N/A   Clear
1:53 AM 32.0 °F - 25.0 °F 75% 29.97 in 10.0 mi Calm Calm - N/A   Mostly Cloudy
2:53 AM 33.1 °F 30.0 °F 27.0 °F 78% 29.96 in 10.0 mi WSW 3.5 mph - N/A   Overcast
3:53 AM 33.1 °F - 27.0 °F 78% 29.94 in 10.0 mi Calm Calm - N/A   Overcast
4:53 AM 32.0 °F - 27.0 °F 82% 29.94 in 10.0 mi Calm Calm - N/A   Overcast
5:53 AM 32.0 °F 26.4 °F 26.1 °F 79% 29.93 in 10.0 mi NNW 5.8 mph - N/A   Overcast
6:53 AM 32.0 °F 28.7 °F 26.1 °F 79% 29.94 in 10.0 mi WSW 3.5 mph - N/A   Overcast
7:53 AM 33.1 °F 30.0 °F 27.0 °F 78% 29.95 in 10.0 mi SSE 3.5 mph - N/A   Overcast
8:53 AM 36.0 °F - 26.1 °F 67% 29.96 in 10.0 mi Calm Calm - N/A   Overcast
9:53 AM 37.0 °F - 25.0 °F 62% 29.94 in 10.0 mi Calm Calm - N/A   Clear
10:53 AM 41.0 °F 36.4 °F 26.1 °F 55% 29.92 in 10.0 mi NNW 6.9 mph - N/A   Overcast
11:53 AM 43.0 °F - 24.1 °F 47% 29.89 in 10.0 mi Calm Calm - N/A   Partly Cloudy
12:53 PM 45.0 °F - 25.0 °F 46% 29.86 in 10.0 mi Calm Calm - N/A   Partly Cloudy
1:53 PM 48.9 °F - 23.0 °F 36% 29.81 in 10.0 mi North 3.5 mph - N/A   Clear
2:53 PM 50.0 °F - 23.0 °F 35% 29.81 in 10.0 mi Variable 4.6 mph - N/A   Clear
3:53 PM 51.1 °F - 21.9 °F 32% 29.79 in 10.0 mi Calm Calm - N/A   Clear
4:53 PM 48.9 °F - 26.1 °F 41% 29.79 in 10.0 mi NW 10.4 mph - N/A   Clear
5:53 PM 46.0 °F 41.0 °F 28.0 °F 50% 29.82 in 10.0 mi NNW 10.4 mph - N/A   Clear
6:53 PM 43.0 °F 35.7 °F 27.0 °F 53% 29.83 in 10.0 mi NW 15.0 mph - N/A   Clear
7:53 PM 39.9 °F 33.4 °F 28.9 °F 65% 29.85 in 10.0 mi NW 10.4 mph - N/A   Overcast
8:53 PM 39.9 °F 32.5 °F 28.0 °F 63% 29.85 in 10.0 mi WNW 12.7 mph - N/A   Overcast
9:53 PM 39.0 °F 31.0 °F 27.0 °F 62% 29.85 in 10.0 mi WNW 13.8 mph - N/A   Overcast
10:53 PM 39.0 °F 29.6 °F 26.1 °F 60% 29.83 in 10.0 mi WNW 18.4 mph 24.2 mph N/A   Mostly Cloudy
11:53 PM 41.0 °F 33.5 °F 25.0 °F 53% 29.83 in 10.0 mi NNW 13.8 mph - N/A   Overcast